User: anonymous   Login
Location: Newark
(25.4297°S, 49.2719°W)
Time: 06:24:56
(UTC+00:00)
Language:

Tiros 1 despin weight - Orbit

View from above orbital plane
View from above orbital plane
View from above satellite
View from above satellite

Ground track
Ground track

The orbit data is extracted from the following two-line orbital elements,

1   115U 60002D   19322.70778852 -.00000020  00000-0  24846-4 0  9997
2   115  48.1660 212.3729 0034451  34.9760 325.3407 14.83509152181536
Epoch (UTC): 18 November 2019 16:59:12
Eccentricity: 0.0034451
inclination: 48.1660°
perigee height: 594 km
apogee height: 642 km
right ascension of ascending node: 212.3729°
argument of perigee: 34.9760°
revolutions per day: 14.83509152
mean anomaly at epoch: 325.3407°
orbit number at epoch: 18153

The dashed part of the orbit path shows where the satellite is in the earth's shadow,  

DLR